User: anonymous   Login
Location: Clyde
(45.1830°S, 169.3170°E)
Time: 05:18:48
(UTC+13:00)
Language:

ISS - Orbit

View from above orbital plane
View from above orbital plane
View from above satellite
View from above satellite

Ground track
Ground track

The orbit data is extracted from the following two-line orbital elements,

1 25544U 98067A   19290.55978435  .00000488  00000-0  16481-4 0  9991
2 25544  51.6428 114.4647 0007139 156.6842 243.0607 15.50202125194242
Epoch (UTC): 17 October 2019 13:26:05
Eccentricity: 0.0007139
inclination: 51.6428°
perigee height: 411 km
apogee height: 421 km
right ascension of ascending node: 114.4647°
argument of perigee: 156.6842°
revolutions per day: 15.50202125
mean anomaly at epoch: 243.0607°
orbit number at epoch: 19424

The dashed part of the orbit path shows where the satellite is in the earth's shadow,  

DLR